• In Slovakia
  • List of Countries
  • For 7 days
  • Water Temperature
  • Satellite Maps
  • Weather Map
  • Weather Widgets
  • user-avatar
    Login

    Hourly Weather Ordino

    Today, 17 January, Wednesday

    Time Temperature Precipitation Wind Pressure Humidity
    00:00 0°C° 0 mm 4 mps 631 mmHg 83%
    01:00 0°C° 0.1 mm 4 mps 631 mmHg 84%
    02:00 -1°C° 0.1 mm 4 mps 631 mmHg 86%
    03:00 -1°C° 0.1 mm 4 mps 631 mmHg 88%
    04:00 -1°C° 0.1 mm 4 mps 631 mmHg 87%
    05:00 -1°C° 0.1 mm 4 mps 632 mmHg 86%
    06:00 -2°C° 0.1 mm 4 mps 632 mmHg 84%
    07:00 -1°C° 0.1 mm 4 mps 632 mmHg 82%
    08:00 -1°C° 0.1 mm 5 mps 633 mmHg 79%
    09:00 -1°C° 0.1 mm 5 mps 633 mmHg 77%
    10:00 -1°C° 0 mm 5 mps 634 mmHg 74%
    11:00 0°C° 0 mm 5 mps 634 mmHg 70%
    12:00 +1°C° 0 mm 5 mps 635 mmHg 67%
    13:00 +1°C° 0 mm 4 mps 635 mmHg 66%
    14:00 +1°C° 0 mm 4 mps 635 mmHg 65%
    15:00 0°C° 0 mm 4 mps 635 mmHg 64%
    16:00 -1°C° 0 mm 4 mps 635 mmHg 68%
    17:00 -2°C° 0 mm 3 mps 635 mmHg 73%
    18:00 -4°C° 0 mm 3 mps 635 mmHg 77%
    19:00 -4°C° 0 mm 3 mps 635 mmHg 77%
    20:00 -4°C° 0 mm 3 mps 635 mmHg 76%
    21:00 -4°C° 0 mm 2 mps 636 mmHg 76%
    22:00 -4°C° 0 mm 2 mps 636 mmHg 75%
    23:00 -4°C° 0 mm 2 mps 636 mmHg 75%

    Tomorrow, 18 January, Thursday

    Time Temperature Precipitation Wind Pressure Humidity
    00:00 -4°C° 0 mm 2 mps 636 mmHg 74%
    01:00 -4°C° 0 mm 2 mps 636 mmHg 73%
    02:00 -2°C° 0 mm 1 mps 635 mmHg 72%
    03:00 -2°C° 0 mm 1 mps 635 mmHg 71%
    04:00 -2°C° 0 mm 1 mps 635 mmHg 71%
    05:00 -2°C° 0 mm 1 mps 635 mmHg 71%
    06:00 -2°C° 0 mm 1 mps 635 mmHg 71%
    07:00 -1°C° 0 mm 1 mps 635 mmHg 69%
    08:00 0°C° 0 mm 1 mps 636 mmHg 68%
    09:00 +2°C° 0 mm 1 mps 636 mmHg 66%
    10:00 +3°C° 0 mm 1 mps 636 mmHg 64%
    11:00 +5°C° 0 mm 1 mps 637 mmHg 63%
    12:00 +6°C° 0 mm 1 mps 637 mmHg 61%
    13:00 +6°C° 0 mm 1 mps 636 mmHg 63%
    14:00 +6°C° 0 mm 1 mps 636 mmHg 64%
    15:00 +6°C° 0 mm 1 mps 635 mmHg 65%
    16:00 +4°C° 0 mm 1 mps 634 mmHg 69%
    17:00 +2°C° 0 mm 1 mps 634 mmHg 74%
    18:00 -1°C° 0 mm 2 mps 633 mmHg 79%
    19:00 -1°C° 0 mm 2 mps 633 mmHg 78%
    20:00 -1°C° 0 mm 2 mps 633 mmHg 77%
    21:00 -1°C° 0 mm 2 mps 633 mmHg 75%
    22:00 -1°C° 0 mm 2 mps 633 mmHg 75%
    23:00 -1°C° 0 mm 2 mps 633 mmHg 75%

    Day after tomorrow, 19 January, Friday

    Time Temperature Precipitation Wind Pressure Humidity
    00:00 -1°C° 0 mm 2 mps 632 mmHg 75%
    01:00 -1°C° 0 mm 2 mps 632 mmHg 76%
    02:00 -1°C° 0 mm 2 mps 632 mmHg 78%
    03:00 -1°C° 0 mm 2 mps 632 mmHg 79%
    04:00 -1°C° 0 mm 2 mps 632 mmHg 81%
    05:00 -1°C° 0 mm 2 mps 631 mmHg 82%
    06:00 -1°C° 0 mm 2 mps 631 mmHg 83%
    07:00 +1°C° 0.1 mm 2 mps 632 mmHg 83%
    08:00 +2°C° 0.1 mm 2 mps 632 mmHg 82%
    09:00 +2°C° 0.1 mm 2 mps 633 mmHg 81%
    10:00 +3°C° 0 mm 2 mps 633 mmHg 77%
    11:00 +3°C° 0 mm 3 mps 633 mmHg 74%
    12:00 +4°C° 0 mm 3 mps 634 mmHg 70%
    13:00 +3°C° 0 mm 3 mps 634 mmHg 69%
    14:00 +3°C° 0 mm 3 mps 633 mmHg 68%
    15:00 +3°C° 0 mm 3 mps 633 mmHg 67%
    16:00 +1°C° 0 mm 3 mps 633 mmHg 71%
    17:00 -1°C° 0 mm 3 mps 633 mmHg 74%
    18:00 -2°C° 0 mm 3 mps 632 mmHg 77%
    19:00 -2°C° 0 mm 3 mps 633 mmHg 76%
    20:00 -4°C° 0 mm 3 mps 633 mmHg 75%
    21:00 -4°C° 0 mm 3 mps 633 mmHg 73%
    22:00 -4°C° 0 mm 3 mps 633 mmHg 75%
    23:00 -4°C° 0 mm 3 mps 634 mmHg 76%

    20 January, Saturday

    Time Temperature Precipitation Wind Pressure Humidity
    00:00 -4°C° 0 mm 3 mps 634 mmHg 78%
    01:00 -4°C° 0 mm 3 mps 633 mmHg 78%
    02:00 -3°C° 0 mm 2 mps 633 mmHg 79%
    03:00 -3°C° 0 mm 2 mps 633 mmHg 79%
    04:00 -3°C° 0 mm 2 mps 633 mmHg 79%
    05:00 -3°C° 0 mm 2 mps 633 mmHg 79%
    06:00 -3°C° 0 mm 2 mps 633 mmHg 79%
    07:00 -2°C° 0 mm 2 mps 633 mmHg 76%
    08:00 -2°C° 0 mm 2 mps 634 mmHg 73%
    09:00 +1°C° 0 mm 1 mps 634 mmHg 71%
    10:00 +2°C° 0.1 mm 1 mps 634 mmHg 69%
    11:00 +3°C° 0.1 mm 2 mps 634 mmHg 67%
    12:00 +4°C° 0.1 mm 2 mps 634 mmHg 65%
    13:00 +3°C° 1.1 mm 2 mps 633 mmHg 70%
    14:00 +3°C° 1.1 mm 2 mps 632 mmHg 74%
    15:00 +3°C° 1.1 mm 2 mps 631 mmHg 79%
    16:00 +2°C° 1.3 mm 3 mps 631 mmHg 83%
    17:00 +1°C° 1.3 mm 4 mps 631 mmHg 86%
    18:00 +1°C° 1.3 mm 4 mps 631 mmHg 89%
    19:00 +1°C° 1 mm 4 mps 631 mmHg 90%
    20:00 +1°C° 1 mm 4 mps 632 mmHg 91%
    21:00 +1°C° 1 mm 4 mps 632 mmHg 91%
    22:00 +1°C° 0.4 mm 4 mps 632 mmHg 91%
    23:00 +1°C° 0.4 mm 4 mps 632 mmHg 91%

    21 January, Sunday

    Time Temperature Precipitation Wind Pressure Humidity
    00:00 +1°C° 0.4 mm 4 mps 633 mmHg 91%
    01:00 +1°C° 0.6 mm 4 mps 633 mmHg 91%
    02:00 +1°C° 0.6 mm 4 mps 633 mmHg 91%
    03:00 +2°C° 0.6 mm 3 mps 634 mmHg 91%
    04:00 +2°C° 0.8 mm 3 mps 634 mmHg 91%
    05:00 +2°C° 0.8 mm 3 mps 634 mmHg 91%
    06:00 +2°C° 0.8 mm 3 mps 635 mmHg 90%
    07:00 +3°C° 0.4 mm 3 mps 635 mmHg 89%
    08:00 +3°C° 0.4 mm 3 mps 636 mmHg 88%
    09:00 +3°C° 0.4 mm 3 mps 637 mmHg 87%
    10:00 +4°C° 0.2 mm 3 mps 637 mmHg 84%
    11:00 +4°C° 0.2 mm 3 mps 637 mmHg 81%
    12:00 +5°C° 0.2 mm 3 mps 638 mmHg 79%
    13:00 +5°C° 0 mm 3 mps 638 mmHg 78%
    14:00 +5°C° 0 mm 3 mps 638 mmHg 77%
    15:00 +5°C° 0 mm 3 mps 638 mmHg 76%
    16:00 +4°C° 0 mm 3 mps 638 mmHg 78%
    17:00 +3°C° 0 mm 3 mps 638 mmHg 81%
    18:00 +2°C° 0 mm 3 mps 638 mmHg 83%
    19:00 +1°C° 0 mm 3 mps 638 mmHg 83%
    20:00 +1°C° 0 mm 3 mps 638 mmHg 83%
    21:00 +2°C° 0 mm 2 mps 638 mmHg 83%
    22:00 +2°C° 0 mm 2 mps 638 mmHg 84%
    23:00 +1°C° 0 mm 2 mps 638 mmHg 84%

    22 January, Monday

    Time Temperature Precipitation Wind Pressure Humidity
    00:00 +1°C° 0 mm 2 mps 638 mmHg 84%
    01:00 +1°C° 0 mm 2 mps 638 mmHg 83%
    02:00 +1°C° 0 mm 2 mps 638 mmHg 83%
    03:00 +1°C° 0 mm 2 mps 638 mmHg 83%
    04:00 +1°C° 0 mm 2 mps 637 mmHg 83%
    05:00 +1°C° 0 mm 2 mps 637 mmHg 83%
    06:00 +1°C° 0 mm 2 mps 637 mmHg 82%
    07:00 +2°C° 0 mm 2 mps 638 mmHg 80%
    08:00 +3°C° 0 mm 2 mps 638 mmHg 78%
    09:00 +3°C° 0 mm 2 mps 639 mmHg 75%
    10:00 +5°C° 0 mm 2 mps 639 mmHg 72%
    11:00 +6°C° 0 mm 2 mps 640 mmHg 70%
    12:00 +8°C° 0 mm 2 mps 640 mmHg 67%
    13:00 +8°C° 0 mm 2 mps 640 mmHg 68%
    14:00 +8°C° 0 mm 2 mps 639 mmHg 70%
    15:00 +7°C° 0 mm 2 mps 639 mmHg 72%
    16:00 +6°C° 0 mm 2 mps 639 mmHg 77%
    17:00 +4°C° 0 mm 2 mps 638 mmHg 81%
    18:00 +3°C° 0 mm 1 mps 638 mmHg 86%
    19:00 +2°C° 0 mm 2 mps 638 mmHg 84%
    20:00 +2°C° 0 mm 2 mps 638 mmHg 82%
    21:00 +2°C° 0 mm 2 mps 638 mmHg 79%
    22:00 +2°C° 0 mm 2 mps 638 mmHg 75%
    23:00 +1°C° 0 mm 2 mps 638 mmHg 72%
    Show more